Location: Songkhla
(7.2000°N, 100.6000°E)
Time: 04:13:02
(UTC+07:00)

BRICSAT 2 - Pass Details

Date: 26 June 2021
Orbit: 295 x 638 km, 28.5° (Epoch: 28 July)

Event Time Altitude Azimuth Distance (km) Brightness Sun altitude
Rises 18:56:03 0° 288° (WNW) 2,251 ? -5.2°
Reaches altitude 10° 18:58:05 10° 280° (W) 1,458 ? -5.7°
Maximum altitude 19:01:15 40° 209° (SSW) 660 ? -6.4°
Drops below altitude 10° 19:04:51 10° 138° (SE) 1,665 ? -7.2°
Enters shadow 19:05:23 - 136° (SE) 1,871 ? -7.3°
Sets 19:07:19 0° 131° (SE) 2,623 - -7.8°
